Theta_e
308 309 308 308 308 309 309 309 308 309 309 309 310 309 310 309 308 307 306 303 305 306 313 314 310 309 309 312 314 315 320 320 320 321 321 321 321 320 320 320 321 321 322 322 324
308 308 308 308 309 309 309 309 308 308 309 309 309 309 308 309 308 308 306 303 312 308 312 313 311 310 312 312 314 317 319 319 318 319 320 319 319 318 318 318 319 319 320 320 320
308 308 309 309 308 309 309 309 309 308 309 309 308 308 308 309 311 317 316 305 312 309 313 311 307 309 312 312 313 313 318 316 316 317 318 317 317 317 317 317 318 318 319 319 319
308 309 308 308 308 308 308 309 309 309 309 309 308 308 309 310 317 311 316 307 312 313 310 309 310 310 311 313 313 314 314 314 315 315 316 315 315 315 315 316 316 317 318 318 319
308 310 309 306 309 309 309 309 309 309 309 309 308 307 308 308 307 314 312 312 316 316 309 312 312 311 312 311 310 313 312 312 313 312 312 313 313 314 314 315 316 316 317 318 319
307 308 308 304 304 308 309 310 309 310 309 310 309 309 311 303 304 315 311 314 310 308 312 314 315 311 311 312 312 310 311 312 313 313 312 313 314 313 315 316 316 316 317 317 318
309 307 306 306 302 303 306 308 309 309 310 311 308 310 310 303 308 314 314 310 307 310 314 314 315 313 312 313 311 312 313 312 313 313 313 313 313 313 314 314 315 316 316 316 317
309 309 308 307 306 303 305 306 307 309 311 311 308 311 307 304 308 310 314 309 309 312 314 315 313 312 312 311 310 312 311 313 313 311 312 312 314 314 314 314 315 314 315 316 317
309 309 308 309 306 306 303 307 310 309 312 310 310 311 312 312 312 311 313 311 311 312 313 314 312 311 311 313 313 311 312 312 314 312 313 313 314 314 315 315 315 316 315 315 316
309 309 309 307 308 306 305 313 311 313 310 310 311 312 311 315 315 313 313 312 313 313 312 312 312 314 311 313 312 312 313 313 314 314 313 314 315 315 316 315 315 315 315 316 316
309 308 309 307 307 307 306 311 313 314 314 318 315 311 313 315 316 313 311 311 312 313 315 311 314 315 315 313 312 312 313 314 314 314 313 315 316 316 316 316 316 316 316 317 317
308 307 306 306 307 306 305 312 314 313 317 314 315 314 313 314 315 315 311 313 312 313 312 313 314 314 314 312 311 312 313 314 314 314 314 316 316 317 317 316 316 316 316 317 318
306 305 305 306 307 307 308 312 313 312 316 315 314 315 316 315 316 316 312 311 312 312 312 314 313 312 312 312 313 314 314 315 315 314 316 317 317 317 316 315 316 316 316 316 316
304 304 306 307 308 305 308 311 311 312 317 315 317 317 315 315 315 315 311 312 312 312 311 312 313 312 312 313 313 315 314 314 314 316 317 317 318 318 317 316 316 317 317 316 315
303 306 307 307 307 307 310 307 312 313 318 318 317 315 316 316 315 317 313 313 313 314 313 315 313 313 313 314 313 315 313 314 316 318 319 317 318 318 317 317 317 316 316 318 318
305 307 306 308 306 309 307 310 313 319 318 319 316 316 317 317 314 314 317 314 314 314 313 314 312 313 314 313 313 316 316 317 317 318 319 318 319 318 317 316 315 316 317 317 316
306 307 306 306 309 309 308 314 317 317 317 316 315 314 315 316 316 314 315 317 317 316 316 315 315 314 312 314 316 317 317 318 319 319 320 317 317 317 316 316 315 316 317 317 316
307 309 307 307 308 308 312 318 315 317 317 315 314 314 317 314 313 313 313 314 313 314 315 315 316 314 315 314 316 318 318 319 322 320 319 317 318 317 316 315 315 316 317 315 315
308 309 308 308 312 309 316 317 312 319 315 315 314 316 316 311 312 312 312 312 312 313 316 315 315 315 317 317 316 319 320 318 320 320 321 317 316 315 314 314 315 316 315 315 316
306 305 308 309 311 311 314 313 315 317 316 316 317 314 314 313 316 315 314 314 315 314 313 315 316 314 316 317 316 318 317 321 321 320 318 314 314 313 312 314 316 314 315 315 316
307 311 309 310 311 316 321 316 316 317 317 317 318 317 315 316 316 313 313 313 313 312 313 314 316 315 315 317 316 319 320 319 317 319 319 317 312 314 314 313 313 315 314 315 316
305 314 310 311 320 312 317 313 312 316 316 317 317 314 313 313 315 315 316 315 314 312 313 314 317 316 315 314 313 314 318 319 322 318 320 320 317 312 312 312 314 313 313 315 315
308 308 310 308 318 313 313 313 313 316 316 317 318 317 316 316 314 313 312 311 310 311 312 314 314 316 315 313 313 316 315 316 316 315 314 317 315 313 313 312 312 312 314 315 315
309 314 310 308 308 311 311 314 315 312 314 315 317 315 315 314 314 315 313 309 309 308 312 313 314 315 316 314 313 315 315 315 316 319 318 317 314 313 313 312 312 314 315 315 314
308 311 308 311 311 310 310 311 311 312 313 313 315 315 315 316 314 316 313 313 311 310 310 311 314 312 312 312 313 312 312 312 316 315 316 314 313 313 312 312 312 315 315 314 312
310 308 306 307 308 309 310 312 312 313 312 314 314 313 314 314 312 315 313 312 311 308 309 310 311 312 311 309 309 309 308 309 311 312 313 313 313 311 313 315 316 315 315 313 312
302 304 307 307 308 309 311 310 310 308 309 311 311 311 313 311 311 310 311 311 310 310 308 309 310 310 309 308 310 311 309 309 309 310 310 312 313 316 317 316 316 315 313 312 311
Wind_Speed
19 18 17 15 14 13 12 12 12 12 12 12 10 9 10 11 13 7 7 8 4 10 9 8 7 8 4 3 2 2 4 7 8 6 5 4 4 6 6 9 6 6 7 10 11
20 19 17 16 14 13 12 11 11 11 11 11 11 9 9 9 9 10 8 10 4 18 9 7 7 8 3 4 3 4 5 8 4 6 8 10 10 9 7 11 12 12 15 16 15
21 20 18 16 14 13 12 11 10 10 10 10 10 9 8 8 4 1 2 12 10 17 7 6 8 4 4 4 4 4 6 5 5 9 8 10 10 9 10 14 12 14 17 16 17
24 21 19 17 15 12 11 10 9 9 9 9 8 8 7 3 4 2 6 16 16 14 10 8 5 6 4 6 4 4 5 5 3 7 8 10 8 10 12 15 16 16 18 17 18
28 24 21 18 16 13 11 10 8 8 7 7 6 5 2 3 5 3 14 16 14 11 9 6 9 4 4 4 6 5 3 5 9 8 9 12 12 12 9 13 14 15 12 15 15
30 26 23 19 16 14 13 11 9 8 7 6 5 2 2 4 1 4 15 14 12 10 8 7 5 4 5 3 4 5 3 4 6 9 6 11 15 3 6 10 12 10 13 10 11
33 31 27 20 16 15 11 11 10 8 7 5 3 1 2 7 3 6 13 8 14 8 5 4 3 2 6 5 2 2 4 5 11 6 7 5 12 9 12 3 8 12 10 10 9
34 36 34 25 17 13 12 12 10 8 5 3 4 1 6 2 4 7 14 7 8 9 3 2 4 3 1 5 3 3 3 4 2 3 2 6 11 9 4 8 11 11 10 9 10
34 36 37 36 24 14 12 12 9 3 2 6 4 2 5 3 5 9 15 5 8 5 3 0 2 2 3 2 2 2 4 2 5 3 4 4 8 9 17 14 13 10 11 11 11
32 35 36 39 33 17 6 5 6 8 6 4 2 4 5 2 4 7 13 6 3 5 4 3 2 4 2 5 4 5 4 3 7 2 7 14 14 11 13 10 12 12 11 12 12
32 34 37 39 38 17 2 4 2 3 5 7 4 2 4 5 2 4 8 9 2 2 7 2 5 11 13 10 4 4 6 9 12 13 5 11 12 12 14 15 14 12 11 11 13
32 35 37 40 34 14 7 4 2 1 8 13 14 8 9 1 2 4 12 8 6 9 4 4 11 12 8 8 8 7 9 11 11 11 7 12 14 15 15 11 10 12 15 18 18
34 36 39 39 21 4 3 3 6 2 4 4 4 4 5 11 5 4 11 8 7 8 9 11 3 9 9 8 9 10 10 10 11 9 8 12 15 10 8 11 13 14 15 17 17
36 37 39 41 3 7 4 2 5 5 3 3 3 3 5 7 5 12 13 8 4 12 8 9 13 12 8 10 10 12 10 13 10 8 10 4 9 16 11 8 9 14 15 14 17
37 37 38 34 13 4 4 4 2 3 1 2 3 8 5 7 4 4 7 5 10 7 6 4 5 6 8 9 12 9 4 9 10 11 8 13 13 3 11 16 13 8 15 17 17
39 41 42 16 8 8 4 2 3 2 2 3 4 3 3 3 1 4 6 1 2 6 8 10 2 4 7 2 9 2 4 4 2 5 13 16 13 5 8 13 11 14 9 13 17
46 45 23 7 2 2 4 3 2 3 4 4 4 3 4 3 5 3 7 10 10 6 10 11 17 11 9 13 7 6 6 7 7 8 12 5 10 13 14 16 12 9 8 14 17
51 20 8 2 3 2 2 2 3 2 4 5 9 7 1 2 3 3 2 5 7 8 8 6 9 5 5 12 9 9 10 7 9 12 16 12 9 9 5 12 12 9 9 14 17
36 11 11 19 2 5 1 2 0 1 2 6 8 2 4 2 1 2 4 3 2 7 7 5 5 1 3 2 2 5 7 1 6 6 10 11 14 11 13 11 7 9 13 17 18
17 9 10 14 5 1 2 1 2 3 4 4 3 7 5 1 5 5 2 4 2 3 4 4 6 2 2 2 5 3 7 3 1 7 16 10 15 12 15 7 10 13 15 17 17
7 2 14 13 5 3 0 1 3 7 6 2 4 2 7 11 10 4 3 1 3 1 2 1 5 5 1 6 11 4 4 2 1 3 6 12 6 3 9 12 15 11 16 16 15
6 1 16 11 2 2 2 5 7 3 5 2 1 3 7 7 6 4 10 7 11 2 7 1 3 9 15 11 4 5 9 9 6 6 5 8 17 15 19 11 7 16 19 15 12
4 3 11 8 2 3 4 5 4 6 2 1 3 5 2 3 4 8 7 2 3 3 2 1 2 5 4 4 3 6 6 7 4 6 16 15 13 5 6 15 19 20 16 11 11
3 4 4 5 3 4 6 3 5 10 8 4 5 5 4 6 10 5 7 4 7 3 8 1 6 12 11 10 5 7 11 14 14 8 16 18 28 25 22 21 20 17 11 11 11
3 3 2 4 3 6 2 4 10 4 2 2 2 4 1 3 4 7 12 16 14 11 9 9 11 16 18 21 18 15 15 14 17 21 20 25 25 24 24 22 19 12 12 11 12
2 2 2 3 4 4 2 2 6 6 3 2 4 9 8 5 7 5 5 7 6 4 9 3 10 5 12 11 14 18 21 21 23 24 24 25 30 21 14 9 11 13 13 14 15
2 1 1 2 3 2 0 4 6 9 5 7 6 8 7 13 13 12 13 13 14 14 10 6 6 5 13 7 9 12 18 19 20 19 16 18 20 10 13 14 15 14 14 18 19
Wind_Direction
347 342 337 331 323 316 308 304 303 303 301 294 305 305 311 315 310 283 243 229 204 192 140 122 121 131 113 118 118 143 191 223 232 220 235 226 287 316 315 285 302 299 283 314 343
349 344 340 333 326 316 310 302 296 292 292 297 300 305 310 318 299 251 251 201 183 163 153 148 140 137 111 135 140 189 213 216 221 233 260 276 291 299 287 292 289 285 276 296 304
352 347 341 336 330 320 310 303 298 296 296 294 301 305 312 321 271 223 328 172 154 162 155 128 129 121 127 160 158 152 224 198 227 242 261 270 274 277 280 282 278 285 296 294 296
354 349 346 339 334 326 315 305 296 289 290 297 302 310 316 276 140 344 157 158 153 154 142 127 129 138 145 162 154 187 238 202 261 248 269 264 283 271 258 267 275 276 280 290 291
359 350 347 345 337 329 320 309 299 294 290 295 304 315 304 238 254 14 147 151 160 161 155 147 152 138 158 153 144 194 231 205 252 268 259 267 251 260 263 264 272 276 276 273 283
7 359 351 351 344 335 325 313 305 296 296 298 294 311 265 253 163 143 153 149 162 152 160 155 171 175 117 138 193 170 223 252 272 261 261 269 273 200 236 258 274 281 286 281 285
11 7 360 352 349 338 330 318 306 299 290 278 239 163 262 241 183 168 169 167 164 161 151 182 142 178 148 147 145 153 258 256 235 254 243 248 268 243 257 320 295 298 294 298 294
7 7 5 353 339 334 322 316 301 285 261 235 170 176 253 255 221 183 179 165 183 189 153 207 154 103 329 126 105 196 203 265 153 206 232 199 267 287 323 325 315 302 302 305 308
360 0 1 358 344 327 326 319 308 238 206 169 151 221 267 271 240 215 186 172 166 188 216 188 96 74 136 180 267 33 262 264 305 192 280 229 298 298 301 310 308 303 295 300 303
354 353 354 354 346 326 357 17 79 109 115 154 249 277 248 181 176 169 183 146 139 142 133 141 109 173 132 190 230 169 204 234 261 245 289 296 289 292 303 311 300 295 289 292 294
349 348 349 350 342 324 315 137 188 185 210 218 186 233 273 312 216 167 164 148 104 106 196 104 209 217 213 209 221 238 242 257 265 273 276 278 285 290 301 303 302 301 294 281 280
345 345 345 346 333 320 183 188 185 298 294 236 244 262 251 27 344 140 154 174 180 207 149 199 243 239 213 202 218 220 256 263 272 262 215 278 277 289 282 279 278 286 294 295 293
340 342 341 344 333 41 258 239 166 317 283 295 196 196 208 182 224 227 179 149 186 193 202 224 210 103 194 211 228 234 236 261 271 303 245 279 280 270 270 246 270 274 270 274 279
338 337 338 339 315 329 251 185 281 178 330 272 228 169 141 156 214 197 187 170 185 217 190 242 249 246 226 240 220 263 229 254 270 281 290 12 291 295 297 275 266 280 296 318 305
334 334 334 335 287 257 170 324 156 205 19 60 86 150 143 194 129 176 179 177 206 179 188 208 182 169 204 233 185 255 204 255 277 270 290 279 279 226 285 293 291 329 327 332 332
333 331 330 323 260 249 240 326 161 207 256 41 120 140 161 241 14 117 175 142 194 209 232 258 244 239 255 191 205 154 260 287 268 279 262 270 261 290 291 291 298 312 328 338 342
332 329 319 269 237 151 325 164 176 231 338 22 22 345 250 238 231 221 178 193 211 194 235 255 244 256 231 256 189 214 255 271 258 239 267 328 289 270 290 282 296 289 317 334 329
336 351 358 322 276 266 188 123 226 68 34 1 346 338 237 40 7 355 156 221 220 237 262 261 271 214 186 226 248 207 218 232 267 273 286 306 264 288 285 300 297 283 323 332 336
345 8 22 351 254 191 163 175 278 141 57 7 360 52 300 73 23 321 322 288 264 182 224 199 248 267 50 123 232 155 211 308 275 243 275 264 269 272 272 290 338 342 343 346 336
342 338 12 355 30 323 84 262 98 37 34 41 126 356 350 111 210 302 301 288 261 230 252 197 268 204 111 105 60 233 137 189 213 283 283 273 283 270 287 292 318 325 337 338 330
352 28 358 359 330 45 92 20 7 67 82 113 166 240 278 285 291 301 238 164 358 30 358 166 250 238 223 229 248 177 199 105 316 213 273 297 267 205 271 296 304 301 323 326 325
345 31 351 4 29 26 48 340 337 8 48 170 151 232 239 254 283 242 255 257 292 221 272 4 262 257 260 271 274 261 240 216 224 226 235 264 280 275 273 282 259 292 313 315 318
358 301 346 8 52 31 346 334 330 7 23 138 206 199 215 277 279 296 273 333 221 196 155 124 244 277 250 208 189 235 206 218 231 255 249 263 267 188 215 295 297 304 306 306 321
345 344 357 38 56 38 3 325 336 346 312 267 259 277 259 246 204 269 238 277 331 350 347 307 258 255 259 287 304 263 240 228 224 236 262 252 273 279 288 293 303 300 294 307 316
14 52 20 347 12 351 290 311 307 299 258 17 280 300 164 257 238 228 255 263 280 314 289 240 245 256 258 264 268 264 258 245 229 243 253 273 275 287 296 297 292 287 286 302 315
47 356 9 305 284 325 236 269 291 353 335 296 253 292 234 232 253 275 278 279 275 276 274 228 256 239 265 274 272 270 263 256 253 253 257 264 277 287 296 284 266 272 287 299 305
67 102 235 307 313 280 182 10 322 339 281 254 347 327 273 268 278 287 271 259 254 267 271 252 247 266 277 299 296 270 260 260 258 257 259 261 273 313 281 279 278 288 293 297 302